Weather History for Anaktuvuk Pass, AK

Change the Weather History Date:

Wednesday, October 2, 2013

  Actual Average Record
Temperature  
Mean Temperature 15 °F -  
Max Temperature 24 °F 25 °F 57 °F (2003)
Min Temperature 6 °F 14 °F -4 °F (2000)
Degree Days  
Heating Degree Days 50    
Moisture  
Dew Point 7 °F    
Average Humidity 70    
Maximum Humidity 79    
Minimum Humidity 59    
Precipitation  
Precipitation 0.00 in - - ()
Sea Level Pressure  
Sea Level Pressure 29.91 in    
Wind  
Wind Speed 3 mph (North)    
Max Wind Speed 6 mph    
Max Gust Speed -    
Visibility 10 miles    
Events      
Averages and records for this station are not official NWS values.
T = Trace of Precipitation, MM = Missing Value Source: NWS Daily Summary

Daily Weather History Graph

Daily Weather History Graph

Search for Another Location

Airport:

Trip Planner

Search our weather history database for the weather conditions in past years. The results will help you decide how hot, cold, wet, or windy it might be!

Date:

Astronomy

Oct. 02, 2013 Rise Set
Actual Time 8:25 AM AKDT 7:25 PM AKDT
Civil Twilight 7:29 AM AKDT 8:20 PM AKDT
Nautical Twilight 6:23 AM AKDT 9:26 PM AKDT
Astronomical Twilight 5:08 AM AKDT 10:39 PM AKDT
Moon 5:21 AM AKDT (10/2) 6:38 PM AKDT (10/2)
Length of Visible Light 12h 50m
Length of Day
10h 59m
Waning Crescent, 5% of the Moon is Illuminated
Oct 2
Waning Crescent
Oct 4
New
Oct 11
First Quarter
Oct 18
Full
Oct 26
Last Quarter

Hourly Weather History & Observations

Time (AKDT) Temp. Windchill Dew Point Humidity Pressure Visibility Wind Dir Wind Speed Gust Speed Precip Events Conditions
12:16 AM 8.6 °F 2.0 °F 1.4 °F 73% 29.95 in 10.0 mi North 3.5 mph - N/A   Clear
12:36 AM 6.8 °F - -0.4 °F 72% 29.94 in 10.0 mi Calm Calm - N/A   Clear
12:56 AM 6.8 °F - -0.4 °F 72% 29.94 in 10.0 mi Calm Calm - N/A   Clear
1:16 AM 6.8 °F -0.1 °F -0.4 °F 72% 29.94 in 10.0 mi North 3.5 mph - N/A   Mostly Cloudy
1:36 AM 8.6 °F 0.1 °F 1.4 °F 73% 29.94 in 10.0 mi North 4.6 mph - N/A   Overcast
1:56 AM 10.4 °F 0.8 °F 3.2 °F 73% 29.94 in 10.0 mi North 5.8 mph - N/A   Overcast
2:16 AM 10.4 °F 2.2 °F 3.2 °F 73% 29.94 in 10.0 mi North 4.6 mph - N/A   Overcast
2:36 AM 10.4 °F 2.2 °F 3.2 °F 73% 29.94 in 10.0 mi NNE 4.6 mph - N/A   Mostly Cloudy
2:56 AM 8.6 °F 2.0 °F 1.4 °F 73% 29.94 in 10.0 mi North 3.5 mph - N/A   Scattered Clouds
3:16 AM 8.6 °F 0.1 °F 1.4 °F 73% 29.94 in 10.0 mi North 4.6 mph - N/A   Partly Cloudy
3:36 AM 8.6 °F -1.3 °F 1.4 °F 73% 29.93 in 10.0 mi North 5.8 mph - N/A   Clear
3:56 AM 6.8 °F -3.5 °F -0.4 °F 72% 29.93 in 10.0 mi North 5.8 mph - N/A   Clear
4:16 AM 8.6 °F 2.0 °F 1.4 °F 73% 29.93 in 10.0 mi NNE 3.5 mph - N/A   Clear
4:36 AM 8.6 °F 2.0 °F 1.4 °F 73% 29.93 in 10.0 mi North 3.5 mph - N/A   Partly Cloudy
4:56 AM 8.6 °F 2.0 °F 1.4 °F 73% 29.92 in 10.0 mi North 3.5 mph - N/A   Scattered Clouds
5:16 AM 8.6 °F 2.0 °F 3.2 °F 79% 29.93 in 10.0 mi North 3.5 mph - N/A   Partly Cloudy
5:36 AM 10.4 °F 2.2 °F 3.2 °F 73% 29.92 in 10.0 mi North 4.6 mph - N/A   Scattered Clouds
5:56 AM 10.4 °F 4.0 °F 3.2 °F 73% 29.92 in 10.0 mi NNE 3.5 mph - N/A   Mostly Cloudy
6:16 AM 10.4 °F 4.0 °F 3.2 °F 73% 29.92 in 10.0 mi North 3.5 mph - N/A   Mostly Cloudy
6:36 AM 10.4 °F 4.0 °F 3.2 °F 73% 29.92 in 10.0 mi North 3.5 mph - N/A   Mostly Cloudy
6:56 AM 10.4 °F - 3.2 °F 73% 29.92 in 10.0 mi Calm Calm - N/A   Mostly Cloudy
7:16 AM 10.4 °F - 3.2 °F 73% 29.92 in 10.0 mi Calm Calm - N/A   Overcast
7:36 AM 10.4 °F - 3.2 °F 73% 29.92 in 10.0 mi Calm Calm - N/A   Overcast
7:56 AM 10.4 °F - 5.0 °F 79% 29.92 in 10.0 mi Calm Calm - N/A   Overcast
8:16 AM 12.2 °F - 5.0 °F 73% 29.92 in 10.0 mi Calm Calm - N/A   Overcast
8:36 AM 12.2 °F 6.1 °F 5.0 °F 73% 29.92 in 10.0 mi North 3.5 mph - N/A   Overcast
8:56 AM 12.2 °F 6.1 °F 5.0 °F 73% 29.92 in 10.0 mi North 3.5 mph - N/A   Mostly Cloudy
9:16 AM 12.2 °F 6.1 °F 5.0 °F 73% 29.92 in 10.0 mi North 3.5 mph - N/A   Mostly Cloudy
9:36 AM 12.2 °F 6.1 °F 5.0 °F 73% 29.92 in 10.0 mi North 3.5 mph - N/A   Overcast
9:56 AM 12.2 °F 6.1 °F 5.0 °F 73% 29.92 in 10.0 mi NNE 3.5 mph - N/A   Overcast
10:16 AM 12.2 °F - 6.8 °F 79% 29.92 in 10.0 mi Calm Calm - N/A   Overcast
10:36 AM 12.2 °F - 6.8 °F 79% 29.92 in 10.0 mi Calm Calm - N/A   Overcast
10:56 AM 14.0 °F - 6.8 °F 73% 29.92 in 9.0 mi Calm Calm - N/A   Overcast
11:16 AM 14.0 °F - 8.6 °F 79% 29.92 in 10.0 mi Calm Calm - N/A   Overcast
11:36 AM 15.8 °F - 8.6 °F 73% 29.92 in 10.0 mi Calm Calm - N/A   Overcast
11:56 AM 15.8 °F - 8.6 °F 73% 29.92 in 10.0 mi Calm Calm - N/A   Overcast
12:16 PM 15.8 °F - 8.6 °F 73% 29.92 in 10.0 mi Calm Calm - N/A   Overcast
12:36 PM 17.6 °F - 10.4 °F 73% 29.92 in 10.0 mi Calm Calm - N/A   Overcast
12:56 PM 17.6 °F - 10.4 °F 73% 29.91 in 10.0 mi Calm Calm - N/A   Overcast
1:16 PM 19.4 °F - 12.2 °F 74% 29.91 in 10.0 mi Calm Calm - N/A   Overcast
1:36 PM 19.4 °F - 12.2 °F 74% 29.91 in 10.0 mi Calm Calm - N/A   Overcast
1:56 PM 21.2 °F - 12.2 °F 68% 29.91 in 10.0 mi Calm Calm - N/A   Overcast
2:16 PM 21.2 °F - 12.2 °F 68% 29.91 in 10.0 mi Calm Calm - N/A   Overcast
2:36 PM 21.2 °F - 12.2 °F 68% 29.91 in 10.0 mi Calm Calm - N/A   Overcast
2:56 PM 23.0 °F - 12.2 °F 63% 29.91 in 10.0 mi Calm Calm - N/A   Overcast
3:16 PM 24.8 °F - 12.2 °F 59% 29.90 in 10.0 mi Calm Calm - N/A   Overcast
3:36 PM 24.8 °F - 14.0 °F 64% 29.90 in 10.0 mi Calm Calm - N/A   Overcast
3:56 PM 24.8 °F - 14.0 °F 64% 29.90 in 10.0 mi Calm Calm - N/A   Overcast
4:16 PM 24.8 °F - 14.0 °F 64% 29.89 in 10.0 mi Calm Calm - N/A   Overcast
4:36 PM 23.0 °F 17.0 °F 12.2 °F 63% 29.89 in 10.0 mi North 4.6 mph - N/A   Overcast
4:56 PM 21.2 °F 16.4 °F 12.2 °F 68% 29.89 in 10.0 mi North 3.5 mph - N/A   Overcast
5:16 PM 23.0 °F - 12.2 °F 63% 29.89 in 10.0 mi Calm Calm - N/A   Overcast
5:36 PM 23.0 °F - 12.2 °F 63% 29.88 in 10.0 mi Calm Calm - N/A   Overcast
5:56 PM 24.8 °F - 14.0 °F 64% 29.88 in 10.0 mi Calm Calm - N/A   Overcast
6:16 PM 24.8 °F - 15.8 °F 69% 29.88 in 10.0 mi Calm Calm - N/A   Overcast
6:36 PM 21.2 °F 13.6 °F 10.4 °F 63% 29.89 in 10.0 mi NNE 5.8 mph - N/A   Overcast
6:56 PM 19.4 °F 11.5 °F 10.4 °F 68% 29.89 in 10.0 mi North 5.8 mph - N/A   Overcast
7:16 PM 19.4 °F 12.8 °F 10.4 °F 68% 29.89 in 10.0 mi North 4.6 mph - N/A   Overcast
7:36 PM 19.4 °F 14.3 °F 10.4 °F 68% 29.89 in 10.0 mi North 3.5 mph - N/A   Overcast
7:56 PM 19.4 °F 12.8 °F 10.4 °F 68% 29.89 in 10.0 mi NNE 4.6 mph - N/A   Overcast
8:16 PM 19.4 °F 14.3 °F 10.4 °F 68% 29.89 in 10.0 mi North 3.5 mph - N/A   Overcast
8:36 PM 17.6 °F 10.7 °F 8.6 °F 68% 29.89 in 10.0 mi North 4.6 mph - N/A   Overcast
8:56 PM 17.6 °F 10.7 °F 8.6 °F 68% 29.89 in 10.0 mi North 4.6 mph - N/A   Overcast
9:16 PM 17.6 °F 12.3 °F 8.6 °F 68% 29.89 in 10.0 mi North 3.5 mph - N/A   Overcast
9:36 PM 19.4 °F 14.3 °F 10.4 °F 68% 29.89 in 10.0 mi North 3.5 mph - N/A   Overcast
9:56 PM 19.4 °F 14.3 °F 10.4 °F 68% 29.89 in 10.0 mi North 3.5 mph - N/A   Overcast
10:16 PM 19.4 °F 14.3 °F 10.4 °F 68% 29.89 in 10.0 mi North 3.5 mph - N/A   Overcast
10:36 PM 19.4 °F 14.3 °F 10.4 °F 68% 29.88 in 10.0 mi North 3.5 mph - N/A   Overcast
10:56 PM 19.4 °F 14.3 °F 10.4 °F 68% 29.88 in 10.0 mi North 3.5 mph - N/A   Overcast
11:16 PM 19.4 °F - 10.4 °F 68% 29.88 in 10.0 mi Calm Calm - N/A   Overcast
11:36 PM 21.2 °F 16.4 °F 10.4 °F 63% 29.88 in 10.0 mi NNE 3.5 mph - N/A   Overcast
11:56 PM 21.2 °F - 10.4 °F 63% 29.88 in 10.0 mi Calm Calm - N/A   Overcast